Year,Month,Day,Hour,Minute,Value (Times are PST for windgust in km/hr)
2012,12,04,00,00,0.00
2012,12,04,00,01,0.00
2012,12,04,00,02,0.00
2012,12,04,00,03,0.00
2012,12,04,00,04,0.00
2012,12,04,00,05,0.00
2012,12,04,00,06,0.00
2012,12,04,00,07,0.00
2012,12,04,00,08,0.00
2012,12,04,00,09,0.00
2012,12,04,00,10,0.00
2012,12,04,00,11,0.00
2012,12,04,00,12,0.00
2012,12,04,00,13,0.00
2012,12,04,00,14,0.00
2012,12,04,00,15,0.00
2012,12,04,00,16,0.00
2012,12,04,00,17,0.00
2012,12,04,00,18,0.00
2012,12,04,00,19,0.00
2012,12,04,00,20,0.00
2012,12,04,00,21,0.00
2012,12,04,00,22,0.00
2012,12,04,00,23,0.00
2012,12,04,00,24,0.00
2012,12,04,00,25,0.00
2012,12,04,00,26,0.00
2012,12,04,00,27,0.00
2012,12,04,00,28,0.00
2012,12,04,00,29,0.00
2012,12,04,00,30,0.00
2012,12,04,00,31,0.00
2012,12,04,00,32,0.00
2012,12,04,00,33,0.00
2012,12,04,00,34,0.00
2012,12,04,00,35,0.00
2012,12,04,00,36,0.00
2012,12,04,00,37,0.00
2012,12,04,00,38,0.00
2012,12,04,00,39,0.00
2012,12,04,00,40,0.00
2012,12,04,00,41,0.00
2012,12,04,00,42,0.00
2012,12,04,00,43,0.00
2012,12,04,00,44,0.00
2012,12,04,00,45,0.00
2012,12,04,00,46,0.00
2012,12,04,00,47,0.00
2012,12,04,00,48,0.00
2012,12,04,00,49,0.00
2012,12,04,00,50,0.00
2012,12,04,00,51,0.00
2012,12,04,00,52,0.00
2012,12,04,00,53,0.00
2012,12,04,00,54,0.00
2012,12,04,00,55,0.00
2012,12,04,00,56,0.00
2012,12,04,00,57,0.00
2012,12,04,00,58,0.00
2012,12,04,00,59,0.00
2012,12,04,01,00,0.00
2012,12,04,01,01,0.00
2012,12,04,01,02,0.00
2012,12,04,01,03,0.00
2012,12,04,01,04,0.00
2012,12,04,01,05,0.00
2012,12,04,01,06,0.00
2012,12,04,01,07,0.00
2012,12,04,01,08,0.00
2012,12,04,01,09,0.00
2012,12,04,01,10,0.00
2012,12,04,01,11,0.00
2012,12,04,01,12,0.00
2012,12,04,01,13,0.00
2012,12,04,01,14,0.00
2012,12,04,01,15,0.00
2012,12,04,01,16,0.00
2012,12,04,01,17,0.00
2012,12,04,01,18,0.00
2012,12,04,01,19,0.00
2012,12,04,01,20,0.00
2012,12,04,01,21,0.00
2012,12,04,01,22,0.00
2012,12,04,01,23,0.00
2012,12,04,01,24,0.00
2012,12,04,01,25,0.00
2012,12,04,01,26,0.00
2012,12,04,01,27,0.00
2012,12,04,01,28,0.00
2012,12,04,01,29,0.00
2012,12,04,01,30,0.00
2012,12,04,01,31,0.00
2012,12,04,01,32,0.00
2012,12,04,01,33,0.00
2012,12,04,01,34,0.00
2012,12,04,01,35,0.00
2012,12,04,01,36,0.00
2012,12,04,01,37,0.00
2012,12,04,01,38,0.00
2012,12,04,01,39,0.00
2012,12,04,01,40,0.00
2012,12,04,01,41,0.00
2012,12,04,01,42,0.00
2012,12,04,01,43,0.00
2012,12,04,01,44,0.00
2012,12,04,01,45,0.00
2012,12,04,01,46,0.00
2012,12,04,01,47,0.00
2012,12,04,01,48,0.00
2012,12,04,01,49,0.00
2012,12,04,01,50,0.00
2012,12,04,01,51,0.00
2012,12,04,01,52,0.00
2012,12,04,01,53,0.00
2012,12,04,01,54,0.00
2012,12,04,01,55,0.00
2012,12,04,01,56,0.00
2012,12,04,01,57,0.00
2012,12,04,01,58,0.00
2012,12,04,01,59,0.00
2012,12,04,02,00,0.00
2012,12,04,02,01,0.00
2012,12,04,02,02,0.00
2012,12,04,02,03,0.00
2012,12,04,02,04,0.00
2012,12,04,02,05,0.00
2012,12,04,02,06,0.00
2012,12,04,02,07,0.00
2012,12,04,02,08,0.00
2012,12,04,02,09,0.00
2012,12,04,02,10,0.00
2012,12,04,02,11,0.00
2012,12,04,02,12,0.00
2012,12,04,02,13,0.00
2012,12,04,02,14,0.00
2012,12,04,02,15,0.00
2012,12,04,02,16,0.00
2012,12,04,02,17,0.00
2012,12,04,02,18,0.00
2012,12,04,02,19,0.00
2012,12,04,02,20,0.00
2012,12,04,02,21,0.00
2012,12,04,02,22,0.00
2012,12,04,02,23,0.00
2012,12,04,02,24,0.00
2012,12,04,02,25,0.00
2012,12,04,02,26,0.00
2012,12,04,02,27,0.00
2012,12,04,02,28,0.00
2012,12,04,02,29,0.00
2012,12,04,02,30,0.00
2012,12,04,02,31,0.00
2012,12,04,02,32,0.00
2012,12,04,02,33,0.00
2012,12,04,02,34,0.00
2012,12,04,02,35,0.00
2012,12,04,02,36,0.00
2012,12,04,02,37,0.00
2012,12,04,02,38,0.00
2012,12,04,02,39,0.00
2012,12,04,02,40,0.00
2012,12,04,02,41,0.00
2012,12,04,02,42,0.00
2012,12,04,02,43,0.00
2012,12,04,02,44,0.00
2012,12,04,02,45,0.00
2012,12,04,02,46,0.00
2012,12,04,02,47,0.00
2012,12,04,02,48,0.00
2012,12,04,02,49,0.00
2012,12,04,02,50,0.00
2012,12,04,02,51,0.00
2012,12,04,02,52,0.00
2012,12,04,02,53,0.00
2012,12,04,02,54,0.00
2012,12,04,02,55,0.00
2012,12,04,02,56,0.00
2012,12,04,02,57,0.00
2012,12,04,02,58,0.00
2012,12,04,02,59,0.00
2012,12,04,03,00,0.00
2012,12,04,03,01,0.00
2012,12,04,03,02,0.00
2012,12,04,03,03,66.00
2012,12,04,03,04,62.70
2012,12,04,03,05,64.40
2012,12,04,03,06,64.40
2012,12,04,03,07,57.90
2012,12,04,03,08,43.50
2012,12,04,03,09,64.40
2012,12,04,03,10,56.30
2012,12,04,03,11,46.70
2012,12,04,03,12,33.80
2012,12,04,03,13,41.80
2012,12,04,03,14,66.00
2012,12,04,03,15,90.10
2012,12,04,03,16,67.60
2012,12,04,03,17,46.70
2012,12,04,03,18,67.60
2012,12,04,03,19,70.80
2012,12,04,03,20,54.70
2012,12,04,03,21,45.10
2012,12,04,03,22,49.90
2012,12,04,03,23,30.60
2012,12,04,03,24,41.80
2012,12,04,03,25,64.40
2012,12,04,03,26,62.70
2012,12,04,03,27,37.00
2012,12,04,03,28,53.10
2012,12,04,03,29,64.40
2012,12,04,03,30,62.70
2012,12,04,03,31,27.40
2012,12,04,03,32,25.70
2012,12,04,03,33,53.10
2012,12,04,03,34,53.10
2012,12,04,03,35,53.10
2012,12,04,03,36,62.70
2012,12,04,03,37,53.10
2012,12,04,03,38,37.00
2012,12,04,03,39,45.10
2012,12,04,03,40,57.90
2012,12,04,03,41,51.50
2012,12,04,03,42,33.80
2012,12,04,03,43,24.20
2012,12,04,03,44,30.60
2012,12,04,03,45,67.60
2012,12,04,03,46,53.10
2012,12,04,03,47,59.50
2012,12,04,03,48,38.60
2012,12,04,03,49,56.30
2012,12,04,03,50,64.40
2012,12,04,03,51,53.10
2012,12,04,03,52,72.40
2012,12,04,03,53,56.30
2012,12,04,03,54,62.70
2012,12,04,03,55,70.80
2012,12,04,03,56,64.40
2012,12,04,03,57,53.10
2012,12,04,03,58,35.40
2012,12,04,03,59,53.10
2012,12,04,04,00,57.90
2012,12,04,04,01,57.90
2012,12,04,04,02,59.50
2012,12,04,04,03,53.10
2012,12,04,04,04,56.30
2012,12,04,04,05,51.50
2012,12,04,04,06,53.10
2012,12,04,04,07,46.70
2012,12,04,04,08,53.10
2012,12,04,04,09,53.10
2012,12,04,04,10,35.40
2012,12,04,04,11,38.60
2012,12,04,04,12,46.70
2012,12,04,04,13,62.70
2012,12,04,04,14,61.20
2012,12,04,04,15,51.50
2012,12,04,04,16,53.10
2012,12,04,04,17,41.80
2012,12,04,04,18,41.80
2012,12,04,04,19,27.40
2012,12,04,04,20,37.00
2012,12,04,04,21,33.80
2012,12,04,04,22,40.20
2012,12,04,04,23,40.20
2012,12,04,04,24,49.90
2012,12,04,04,25,49.90
2012,12,04,04,26,46.70
2012,12,04,04,27,59.50
2012,12,04,04,28,49.90
2012,12,04,04,29,46.70
2012,12,04,04,30,41.80
2012,12,04,04,31,45.10
2012,12,04,04,32,61.20
2012,12,04,04,33,46.70
2012,12,04,04,34,40.20
2012,12,04,04,35,37.00
2012,12,04,04,36,62.70
2012,12,04,04,37,46.70
2012,12,04,04,38,59.50
2012,12,04,04,39,59.50
2012,12,04,04,40,57.90
2012,12,04,04,41,54.70
2012,12,04,04,42,53.10
2012,12,04,04,43,53.10
2012,12,04,04,44,40.20
2012,12,04,04,45,49.90
2012,12,04,04,46,41.80
2012,12,04,04,47,30.60
2012,12,04,04,48,51.50
2012,12,04,04,49,46.70
2012,12,04,04,50,45.10
2012,12,04,04,51,45.10
2012,12,04,04,52,45.10
2012,12,04,04,53,38.60
2012,12,04,04,54,32.20
2012,12,04,04,55,40.20
2012,12,04,04,56,53.10
2012,12,04,04,57,46.70
2012,12,04,04,58,40.20
2012,12,04,04,59,41.80
2012,12,04,05,00,43.50
2012,12,04,05,01,51.50
2012,12,04,05,02,40.20
2012,12,04,05,03,38.60
2012,12,04,05,04,30.60
2012,12,04,05,05,24.20
2012,12,04,05,06,40.20
2012,12,04,05,07,33.80
2012,12,04,05,08,25.70
2012,12,04,05,09,32.20
2012,12,04,05,10,38.60
2012,12,04,05,11,40.20
2012,12,04,05,12,40.20
2012,12,04,05,13,24.20
2012,12,04,05,14,27.40
2012,12,04,05,15,25.70
2012,12,04,05,16,27.40
2012,12,04,05,17,29.00
2012,12,04,05,18,37.00
2012,12,04,05,19,33.80
2012,12,04,05,20,25.70
2012,12,04,05,21,32.20
2012,12,04,05,22,37.00
2012,12,04,05,23,29.00
2012,12,04,05,24,27.40
2012,12,04,05,25,29.00
2012,12,04,05,26,29.00
2012,12,04,05,27,29.00
2012,12,04,05,28,30.60
2012,12,04,05,29,24.20
2012,12,04,05,30,25.70
2012,12,04,05,31,25.70
2012,12,04,05,32,22.50
2012,12,04,05,33,24.20
2012,12,04,05,34,19.30
2012,12,04,05,35,27.40
2012,12,04,05,36,27.40
2012,12,04,05,37,24.20
2012,12,04,05,38,25.70
2012,12,04,05,39,32.20
2012,12,04,05,40,27.40
2012,12,04,05,41,32.20
2012,12,04,05,42,32.20
2012,12,04,05,43,25.70
2012,12,04,05,44,27.40
2012,12,04,05,45,25.70
2012,12,04,05,46,30.60
2012,12,04,05,47,19.30
2012,12,04,05,48,22.50
2012,12,04,05,49,22.50
2012,12,04,05,50,16.10
2012,12,04,05,51,25.70
2012,12,04,05,52,20.90
2012,12,04,05,53,25.70
2012,12,04,05,54,25.70
2012,12,04,05,55,25.70
2012,12,04,05,56,25.70
2012,12,04,05,57,17.70
2012,12,04,05,58,20.90
2012,12,04,05,59,22.50
2012,12,04,06,00,20.90
2012,12,04,06,01,24.20
2012,12,04,06,02,22.50
2012,12,04,06,03,22.50
2012,12,04,06,04,25.70
2012,12,04,06,05,29.00
2012,12,04,06,06,29.00
2012,12,04,06,07,27.40
2012,12,04,06,08,25.70
2012,12,04,06,09,27.40
2012,12,04,06,10,29.00
2012,12,04,06,11,24.20
2012,12,04,06,12,24.20
2012,12,04,06,13,20.90
2012,12,04,06,14,19.30
2012,12,04,06,15,16.10
2012,12,04,06,16,19.30
2012,12,04,06,17,20.90
2012,12,04,06,18,24.20
2012,12,04,06,19,20.90
2012,12,04,06,20,19.30
2012,12,04,06,21,20.90
2012,12,04,06,22,27.40
2012,12,04,06,23,29.00
2012,12,04,06,24,25.70
2012,12,04,06,25,9.60
2012,12,04,06,26,4.80
2012,12,04,06,27,16.10
2012,12,04,06,28,20.90
2012,12,04,06,29,19.30
2012,12,04,06,30,22.50
2012,12,04,06,31,22.50
2012,12,04,06,32,22.50
2012,12,04,06,33,22.50
2012,12,04,06,34,19.30
2012,12,04,06,35,19.30
2012,12,04,06,36,25.70
2012,12,04,06,37,22.50
2012,12,04,06,38,22.50
2012,12,04,06,39,22.50
2012,12,04,06,40,16.10
2012,12,04,06,41,16.10
2012,12,04,06,42,19.30
2012,12,04,06,43,29.00
2012,12,04,06,44,33.80
2012,12,04,06,45,25.70
2012,12,04,06,46,32.20
2012,12,04,06,47,29.00
2012,12,04,06,48,29.00
2012,12,04,06,49,27.40
2012,12,04,06,50,35.40
2012,12,04,06,51,30.60
2012,12,04,06,52,37.00
2012,12,04,06,53,37.00
2012,12,04,06,54,37.00
2012,12,04,06,55,41.80
2012,12,04,06,56,46.70
2012,12,04,06,57,37.00
2012,12,04,06,58,45.10
2012,12,04,06,59,46.70
2012,12,04,07,00,46.70
2012,12,04,07,01,49.90
2012,12,04,07,02,45.10
2012,12,04,07,03,53.10
2012,12,04,07,04,51.50
2012,12,04,07,05,45.10
2012,12,04,07,06,51.50
2012,12,04,07,07,51.50
2012,12,04,07,08,49.90
2012,12,04,07,09,54.70
2012,12,04,07,10,53.10
2012,12,04,07,11,53.10
2012,12,04,07,12,51.50
2012,12,04,07,13,53.10
2012,12,04,07,14,53.10
2012,12,04,07,15,53.10
2012,12,04,07,16,48.30
2012,12,04,07,17,48.30
2012,12,04,07,18,48.30
2012,12,04,07,19,48.30
2012,12,04,07,20,46.70
2012,12,04,07,21,48.30
2012,12,04,07,22,53.10
2012,12,04,07,23,53.10
2012,12,04,07,24,53.10
2012,12,04,07,25,59.50
2012,12,04,07,26,59.50
2012,12,04,07,27,61.20
2012,12,04,07,28,61.20
2012,12,04,07,29,49.90
2012,12,04,07,30,53.10
2012,12,04,07,31,54.70
2012,12,04,07,32,54.70
2012,12,04,07,33,56.30
2012,12,04,07,34,54.70
2012,12,04,07,35,45.10
2012,12,04,07,36,51.50
2012,12,04,07,37,51.50
2012,12,04,07,38,53.10
2012,12,04,07,39,48.30
2012,12,04,07,40,53.10
2012,12,04,07,41,64.40
2012,12,04,07,42,53.10
2012,12,04,07,43,49.90
2012,12,04,07,44,53.10
2012,12,04,07,45,59.50
2012,12,04,07,46,61.20
2012,12,04,07,47,49.90
2012,12,04,07,48,59.50
2012,12,04,07,49,59.50
2012,12,04,07,50,53.10
2012,12,04,07,51,54.70
2012,12,04,07,52,56.30
2012,12,04,07,53,62.70
2012,12,04,07,54,62.70
2012,12,04,07,55,64.40
2012,12,04,07,56,59.50
2012,12,04,07,57,51.50
2012,12,04,07,58,61.20
2012,12,04,07,59,61.20
2012,12,04,08,00,59.50
2012,12,04,08,01,64.40
2012,12,04,08,02,64.40
2012,12,04,08,03,54.70
2012,12,04,08,04,61.20
2012,12,04,08,05,56.30
2012,12,04,08,06,53.10
2012,12,04,08,07,49.90
2012,12,04,08,08,54.70
2012,12,04,08,09,54.70
2012,12,04,08,10,43.50
2012,12,04,08,11,51.50
2012,12,04,08,12,46.70
2012,12,04,08,13,48.30
2012,12,04,08,14,40.20
2012,12,04,08,15,40.20
2012,12,04,08,16,45.10
2012,12,04,08,17,49.90
2012,12,04,08,18,49.90
2012,12,04,08,19,48.30
2012,12,04,08,20,51.50
2012,12,04,08,21,48.30
2012,12,04,08,22,53.10
2012,12,04,08,23,46.70
2012,12,04,08,24,49.90
2012,12,04,08,25,49.90
2012,12,04,08,26,48.30
2012,12,04,08,27,48.30
2012,12,04,08,28,48.30
2012,12,04,08,29,48.30
2012,12,04,08,30,49.90
2012,12,04,08,31,46.70
2012,12,04,08,32,51.50
2012,12,04,08,33,43.50
2012,12,04,08,34,53.10
2012,12,04,08,35,53.10
2012,12,04,08,36,48.30
2012,12,04,08,37,41.80
2012,12,04,08,38,40.20
2012,12,04,08,39,48.30
2012,12,04,08,40,48.30
2012,12,04,08,41,49.90
2012,12,04,08,42,37.00
2012,12,04,08,43,40.20
2012,12,04,08,44,41.80
2012,12,04,08,45,56.30
2012,12,04,08,46,56.30
2012,12,04,08,47,54.70
2012,12,04,08,48,41.80
2012,12,04,08,49,69.20
2012,12,04,08,50,48.30
2012,12,04,08,51,62.70
2012,12,04,08,52,57.90
2012,12,04,08,53,61.20
2012,12,04,08,54,51.50
2012,12,04,08,55,53.10
2012,12,04,08,56,59.50
2012,12,04,08,57,51.50
2012,12,04,08,58,56.30
2012,12,04,08,59,51.50
2012,12,04,09,00,53.10
2012,12,04,09,01,53.10
2012,12,04,09,02,53.10
2012,12,04,09,03,53.10
2012,12,04,09,04,51.50
2012,12,04,09,05,51.50
2012,12,04,09,06,53.10
2012,12,04,09,07,53.10
2012,12,04,09,08,38.60
2012,12,04,09,09,41.80
2012,12,04,09,10,40.20
2012,12,04,09,11,46.70
2012,12,04,09,12,45.10
2012,12,04,09,13,41.80
2012,12,04,09,14,45.10
2012,12,04,09,15,51.50
2012,12,04,09,16,43.50
2012,12,04,09,17,46.70
2012,12,04,09,18,51.50
2012,12,04,09,19,40.20
2012,12,04,09,20,38.60
2012,12,04,09,21,35.40
2012,12,04,09,22,37.00
2012,12,04,09,23,40.20
2012,12,04,09,24,40.20
2012,12,04,09,25,43.50
2012,12,04,09,26,43.50
2012,12,04,09,27,40.20
2012,12,04,09,28,48.30
2012,12,04,09,29,45.10
2012,12,04,09,30,30.60
2012,12,04,09,31,37.00
2012,12,04,09,32,40.20
2012,12,04,09,33,38.60
2012,12,04,09,34,38.60
2012,12,04,09,35,43.50
2012,12,04,09,36,43.50
2012,12,04,09,37,37.00
2012,12,04,09,38,46.70
2012,12,04,09,39,40.20
2012,12,04,09,40,37.00
2012,12,04,09,41,38.60
2012,12,04,09,42,43.50
2012,12,04,09,43,43.50
2012,12,04,09,44,51.50
2012,12,04,09,45,45.10
2012,12,04,09,46,45.10
2012,12,04,09,47,51.50
2012,12,04,09,48,53.10
2012,12,04,09,49,40.20
2012,12,04,09,50,46.70
2012,12,04,09,51,56.30
2012,12,04,09,52,35.40
2012,12,04,09,53,30.60
2012,12,04,09,54,43.50
2012,12,04,09,55,40.20
2012,12,04,09,56,46.70
2012,12,04,09,57,48.30
2012,12,04,09,58,46.70
2012,12,04,09,59,48.30
2012,12,04,10,00,46.70
2012,12,04,10,01,46.70
2012,12,04,10,02,46.70
2012,12,04,10,03,40.20
2012,12,04,10,04,40.20
2012,12,04,10,05,40.20
2012,12,04,10,06,38.60
2012,12,04,10,07,38.60
2012,12,04,10,08,38.60
2012,12,04,10,09,40.20
2012,12,04,10,10,37.00
2012,12,04,10,11,35.40
2012,12,04,10,12,37.00
2012,12,04,10,13,35.40
2012,12,04,10,14,32.20
2012,12,04,10,15,35.40
2012,12,04,10,16,41.80
2012,12,04,10,17,43.50
2012,12,04,10,18,38.60
2012,12,04,10,19,41.80
2012,12,04,10,20,40.20
2012,12,04,10,21,49.90
2012,12,04,10,22,46.70
2012,12,04,10,23,51.50
2012,12,04,10,24,51.50
2012,12,04,10,25,53.10
2012,12,04,10,26,51.50
2012,12,04,10,27,41.80
2012,12,04,10,28,40.20
2012,12,04,10,29,48.30
2012,12,04,10,30,41.80
2012,12,04,10,31,43.50
2012,12,04,10,32,33.80
2012,12,04,10,33,30.60
2012,12,04,10,34,35.40
2012,12,04,10,35,41.80
2012,12,04,10,36,41.80
2012,12,04,10,37,46.70
2012,12,04,10,38,41.80
2012,12,04,10,39,40.20
2012,12,04,10,40,25.70
2012,12,04,10,41,32.20
2012,12,04,10,42,38.60
2012,12,04,10,43,30.60
2012,12,04,10,44,43.50
2012,12,04,10,45,40.20
2012,12,04,10,46,43.50
2012,12,04,10,47,35.40
2012,12,04,10,48,35.40
2012,12,04,10,49,37.00
2012,12,04,10,50,30.60
2012,12,04,10,51,41.80
2012,12,04,10,52,32.20
2012,12,04,10,53,32.20
2012,12,04,10,54,33.80
2012,12,04,10,55,37.00
2012,12,04,10,56,33.80
2012,12,04,10,57,38.60
2012,12,04,10,58,37.00
2012,12,04,10,59,35.40
2012,12,04,11,00,30.60
2012,12,04,11,01,35.40
2012,12,04,11,02,30.60
2012,12,04,11,03,22.50
2012,12,04,11,04,40.20
2012,12,04,11,05,30.60
2012,12,04,11,06,43.50
2012,12,04,11,07,37.00
2012,12,04,11,08,35.40
2012,12,04,11,09,32.20
2012,12,04,11,10,37.00
2012,12,04,11,11,38.60
2012,12,04,11,12,37.00
2012,12,04,11,13,41.80
2012,12,04,11,14,37.00
2012,12,04,11,15,37.00
2012,12,04,11,16,41.80
2012,12,04,11,17,41.80
2012,12,04,11,18,33.80
2012,12,04,11,19,35.40
2012,12,04,11,20,45.10
2012,12,04,11,21,40.20
2012,12,04,11,22,29.00
2012,12,04,11,23,24.20
2012,12,04,11,24,37.00
2012,12,04,11,25,32.20
2012,12,04,11,26,33.80
2012,12,04,11,27,27.40
2012,12,04,11,28,48.30
2012,12,04,11,29,53.10
2012,12,04,11,30,49.90
2012,12,04,11,31,38.60
2012,12,04,11,32,35.40
2012,12,04,11,33,37.00
2012,12,04,11,34,35.40
2012,12,04,11,35,40.20
2012,12,04,11,36,45.10
2012,12,04,11,37,40.20
2012,12,04,11,38,40.20
2012,12,04,11,39,38.60
2012,12,04,11,40,38.60
2012,12,04,11,41,43.50
2012,12,04,11,42,33.80
2012,12,04,11,43,37.00
2012,12,04,11,44,33.80
2012,12,04,11,45,35.40
2012,12,04,11,46,35.40
2012,12,04,11,47,38.60
2012,12,04,11,48,38.60
2012,12,04,11,49,37.00
2012,12,04,11,50,38.60
2012,12,04,11,51,38.60
2012,12,04,11,52,37.00
2012,12,04,11,53,35.40
2012,12,04,11,54,37.00
2012,12,04,11,55,40.20
2012,12,04,11,56,38.60
2012,12,04,11,57,40.20
2012,12,04,11,58,32.20
2012,12,04,11,59,38.60
2012,12,04,12,00,38.60
2012,12,04,12,01,33.80
2012,12,04,12,02,35.40
2012,12,04,12,03,40.20
2012,12,04,12,04,37.00
2012,12,04,12,05,35.40
2012,12,04,12,06,30.60
2012,12,04,12,07,32.20
2012,12,04,12,08,40.20
2012,12,04,12,09,40.20
2012,12,04,12,10,32.20
2012,12,04,12,11,35.40
2012,12,04,12,12,41.80
2012,12,04,12,13,37.00
2012,12,04,12,14,43.50
2012,12,04,12,15,43.50
2012,12,04,12,16,37.00
2012,12,04,12,17,33.80
2012,12,04,12,18,43.50
2012,12,04,12,19,32.20
2012,12,04,12,20,32.20
2012,12,04,12,21,37.00
2012,12,04,12,22,35.40
2012,12,04,12,23,33.80
2012,12,04,12,24,30.60
2012,12,04,12,25,33.80
2012,12,04,12,26,38.60
2012,12,04,12,27,37.00
2012,12,04,12,28,38.60
2012,12,04,12,29,32.20
2012,12,04,12,30,29.00
2012,12,04,12,31,32.20
2012,12,04,12,32,33.80
2012,12,04,12,33,45.10
2012,12,04,12,34,45.10
2012,12,04,12,35,38.60
2012,12,04,12,36,33.80
2012,12,04,12,37,30.60
2012,12,04,12,38,40.20
2012,12,04,12,39,37.00
2012,12,04,12,40,41.80
2012,12,04,12,41,35.40
2012,12,04,12,42,35.40
2012,12,04,12,43,35.40
2012,12,04,12,44,33.80
2012,12,04,12,45,30.60
2012,12,04,12,46,33.80
2012,12,04,12,47,46.70
2012,12,04,12,48,40.20
2012,12,04,12,49,38.60
2012,12,04,12,50,33.80
2012,12,04,12,51,33.80
2012,12,04,12,52,33.80
2012,12,04,12,53,37.00
2012,12,04,12,54,30.60
2012,12,04,12,55,29.00
2012,12,04,12,56,24.20
2012,12,04,12,57,32.20
2012,12,04,12,58,37.00
2012,12,04,12,59,37.00
2012,12,04,13,00,33.80
2012,12,04,13,01,33.80
2012,12,04,13,02,32.20
2012,12,04,13,03,25.70
2012,12,04,13,04,30.60
2012,12,04,13,05,27.40
2012,12,04,13,06,33.80
2012,12,04,13,07,33.80
2012,12,04,13,08,22.50
2012,12,04,13,09,22.50
2012,12,04,13,10,32.20
2012,12,04,13,11,35.40
2012,12,04,13,12,25.70
2012,12,04,13,13,16.10
2012,12,04,13,14,32.20
2012,12,04,13,15,24.20
2012,12,04,13,16,25.70
2012,12,04,13,17,24.20
2012,12,04,13,18,24.20
2012,12,04,13,19,25.70
2012,12,04,13,20,32.20
2012,12,04,13,21,30.60
2012,12,04,13,22,22.50
2012,12,04,13,23,22.50
2012,12,04,13,24,22.50
2012,12,04,13,25,20.90
2012,12,04,13,26,20.90
2012,12,04,13,27,25.70
2012,12,04,13,28,25.70
2012,12,04,13,29,33.80
2012,12,04,13,30,27.40
2012,12,04,13,31,27.40
2012,12,04,13,32,30.60
2012,12,04,13,33,30.60
2012,12,04,13,34,29.00
2012,12,04,13,35,27.40
2012,12,04,13,36,27.40
2012,12,04,13,37,24.20
2012,12,04,13,38,33.80
2012,12,04,13,39,29.00
2012,12,04,13,40,19.30
2012,12,04,13,41,27.40
2012,12,04,13,42,27.40
2012,12,04,13,43,29.00
2012,12,04,13,44,29.00
2012,12,04,13,45,29.00
2012,12,04,13,46,29.00
2012,12,04,13,47,29.00
2012,12,04,13,48,27.40
2012,12,04,13,49,22.50
2012,12,04,13,50,24.20
2012,12,04,13,51,25.70
2012,12,04,13,52,27.40
2012,12,04,13,53,27.40
2012,12,04,13,54,24.20
2012,12,04,13,55,27.40
2012,12,04,13,56,25.70
2012,12,04,13,57,32.20
2012,12,04,13,58,22.50
2012,12,04,13,59,22.50
2012,12,04,14,00,27.40
2012,12,04,14,01,22.50
2012,12,04,14,02,20.90
2012,12,04,14,03,24.20
2012,12,04,14,04,20.90
2012,12,04,14,05,24.20
2012,12,04,14,06,24.20
2012,12,04,14,07,35.40
2012,12,04,14,08,30.60
2012,12,04,14,09,25.70
2012,12,04,14,10,20.90
2012,12,04,14,11,25.70
2012,12,04,14,12,22.50
2012,12,04,14,13,22.50
2012,12,04,14,14,17.70
2012,12,04,14,15,22.50
2012,12,04,14,16,20.90
2012,12,04,14,17,24.20
2012,12,04,14,18,27.40
2012,12,04,14,19,29.00
2012,12,04,14,20,35.40
2012,12,04,14,21,30.60
2012,12,04,14,22,40.20
2012,12,04,14,23,37.00
2012,12,04,14,24,33.80
2012,12,04,14,25,35.40
2012,12,04,14,26,33.80
2012,12,04,14,27,32.20
2012,12,04,14,28,33.80
2012,12,04,14,29,37.00
2012,12,04,14,30,32.20
2012,12,04,14,31,35.40
2012,12,04,14,32,30.60
2012,12,04,14,33,35.40
2012,12,04,14,34,32.20
2012,12,04,14,35,33.80
2012,12,04,14,36,35.40
2012,12,04,14,37,30.60
2012,12,04,14,38,29.00
2012,12,04,14,39,25.70
2012,12,04,14,40,25.70
2012,12,04,14,41,25.70
2012,12,04,14,42,25.70
2012,12,04,14,43,29.00
2012,12,04,14,44,33.80
2012,12,04,14,45,30.60
2012,12,04,14,46,33.80
2012,12,04,14,47,33.80
2012,12,04,14,48,27.40
2012,12,04,14,49,29.00
2012,12,04,14,50,25.70
2012,12,04,14,51,30.60
2012,12,04,14,52,27.40
2012,12,04,14,53,27.40
2012,12,04,14,54,24.20
2012,12,04,14,55,27.40
2012,12,04,14,56,19.30
2012,12,04,14,57,20.90
2012,12,04,14,58,22.50
2012,12,04,14,59,25.70
2012,12,04,15,00,24.20
2012,12,04,15,01,19.30
2012,12,04,15,02,19.30
2012,12,04,15,03,19.30
2012,12,04,15,04,19.30
2012,12,04,15,05,19.30
2012,12,04,15,06,9.60
2012,12,04,15,07,8.10
2012,12,04,15,08,11.30
2012,12,04,15,09,9.60
2012,12,04,15,10,9.60
2012,12,04,15,11,6.40
2012,12,04,15,12,8.10
2012,12,04,15,13,3.20
2012,12,04,15,14,4.80
2012,12,04,15,15,9.60
2012,12,04,15,16,8.10
2012,12,04,15,17,6.40
2012,12,04,15,18,8.10
2012,12,04,15,19,9.60
2012,12,04,15,20,9.60
2012,12,04,15,21,9.60
2012,12,04,15,22,9.60
2012,12,04,15,23,8.10
2012,12,04,15,24,8.10
2012,12,04,15,25,6.40
2012,12,04,15,26,6.40
2012,12,04,15,27,3.20
2012,12,04,15,28,9.60
2012,12,04,15,29,9.60
2012,12,04,15,30,8.10
2012,12,04,15,31,8.10
2012,12,04,15,32,4.80
2012,12,04,15,33,6.40
2012,12,04,15,34,4.80
2012,12,04,15,35,6.40
2012,12,04,15,36,6.40
2012,12,04,15,37,3.20
2012,12,04,15,38,6.40
2012,12,04,15,39,8.10
2012,12,04,15,40,6.40
2012,12,04,15,41,4.80
2012,12,04,15,42,3.20
2012,12,04,15,43,3.20
2012,12,04,15,44,3.20
2012,12,04,15,45,12.90
2012,12,04,15,46,14.50
2012,12,04,15,47,9.60
2012,12,04,15,48,9.60
2012,12,04,15,49,11.30
2012,12,04,15,50,6.40
2012,12,04,15,51,8.10
2012,12,04,15,52,8.10
2012,12,04,15,53,4.80
2012,12,04,15,54,6.40
2012,12,04,15,55,6.40
2012,12,04,15,56,8.10
2012,12,04,15,57,9.60
2012,12,04,15,58,9.60
2012,12,04,15,59,9.60
2012,12,04,16,00,9.60
2012,12,04,16,01,11.30
2012,12,04,16,02,14.50
2012,12,04,16,03,14.50
2012,12,04,16,04,9.60
2012,12,04,16,05,9.60
2012,12,04,16,06,14.50
2012,12,04,16,07,11.30
2012,12,04,16,08,14.50
2012,12,04,16,09,8.10
2012,12,04,16,10,11.30
2012,12,04,16,11,12.90
2012,12,04,16,12,11.30
2012,12,04,16,13,14.50
2012,12,04,16,14,16.10
2012,12,04,16,15,14.50
2012,12,04,16,16,14.50
2012,12,04,16,17,11.30
2012,12,04,16,18,11.30
2012,12,04,16,19,9.60
2012,12,04,16,20,16.10
2012,12,04,16,21,14.50
2012,12,04,16,22,14.50
2012,12,04,16,23,9.60
2012,12,04,16,24,8.10
2012,12,04,16,25,9.60
2012,12,04,16,26,8.10
2012,12,04,16,27,4.80
2012,12,04,16,28,4.80
2012,12,04,16,29,4.80
2012,12,04,16,30,4.80
2012,12,04,16,31,4.80
2012,12,04,16,32,4.80
2012,12,04,16,33,4.80
2012,12,04,16,34,4.80
2012,12,04,16,35,9.60
2012,12,04,16,36,9.60
2012,12,04,16,37,8.10
2012,12,04,16,38,6.40
2012,12,04,16,39,9.60
2012,12,04,16,40,16.10
2012,12,04,16,41,11.30
2012,12,04,16,42,11.30
2012,12,04,16,43,8.10
2012,12,04,16,44,9.60
2012,12,04,16,45,9.60
2012,12,04,16,46,8.10
2012,12,04,16,47,6.40
2012,12,04,16,48,8.10
2012,12,04,16,49,6.40
2012,12,04,16,50,8.10
2012,12,04,16,51,8.10
2012,12,04,16,52,9.60
2012,12,04,16,53,4.80
2012,12,04,16,54,14.50
2012,12,04,16,55,9.60
2012,12,04,16,56,8.10
2012,12,04,16,57,9.60
2012,12,04,16,58,8.10
2012,12,04,16,59,8.10
2012,12,04,17,00,6.40
2012,12,04,17,01,4.80
2012,12,04,17,02,4.80
2012,12,04,17,03,6.40
2012,12,04,17,04,8.10
2012,12,04,17,05,8.10
2012,12,04,17,06,9.60
2012,12,04,17,07,11.30
2012,12,04,17,08,9.60
2012,12,04,17,09,9.60
2012,12,04,17,10,11.30
2012,12,04,17,11,11.30
2012,12,04,17,12,11.30
2012,12,04,17,13,9.60
2012,12,04,17,14,14.50
2012,12,04,17,15,9.60
2012,12,04,17,16,9.60
2012,12,04,17,17,6.40
2012,12,04,17,18,4.80
2012,12,04,17,19,8.10
2012,12,04,17,20,8.10
2012,12,04,17,21,8.10
2012,12,04,17,22,6.40
2012,12,04,17,23,6.40
2012,12,04,17,24,4.80
2012,12,04,17,25,3.20
2012,12,04,17,26,4.80
2012,12,04,17,27,4.80
2012,12,04,17,28,4.80
2012,12,04,17,29,4.80
2012,12,04,17,30,4.80
2012,12,04,17,31,4.80
2012,12,04,17,32,4.80